When you browse on this site, cookies collect data to enhance your experience and personalize the content and advertising you see.
Visit our Privacy Policy to learn more. By continuing to use the site, you agree to this use of cookies and data.
  • In Spain
  • List of Countries
  • For 7 days
  • Water Temperature
  • Satellite Maps
  • Weather Map
  • Weather Widgets
  • user-avatar
    Login

    Hourly Weather Chervonyi Kut

    Today, 21 March, Thursday

    Time Temperature Precipitation Wind Pressure Humidity
    00:00 +2°C° 0 mm 2 mps 757 mmHg 76%
    01:00 +1°C° 0 mm 2 mps 757 mmHg 77%
    02:00 +1°C° 0 mm 2 mps 756 mmHg 78%
    03:00 +1°C° 0 mm 2 mps 756 mmHg 80%
    04:00 -1°C° 0 mm 2 mps 756 mmHg 81%
    05:00 -1°C° 0 mm 2 mps 756 mmHg 83%
    06:00 0°C° 0 mm 3 mps 756 mmHg 77%
    07:00 +1°C° 0 mm 3 mps 756 mmHg 72%
    08:00 +1°C° 0 mm 4 mps 755 mmHg 67%
    09:00 +3°C° 0 mm 4 mps 755 mmHg 64%
    10:00 +3°C° 0 mm 5 mps 755 mmHg 60%
    11:00 +4°C° 0 mm 6 mps 754 mmHg 56%
    12:00 +3°C° 0.1 mm 6 mps 754 mmHg 61%
    13:00 +3°C° 0.1 mm 6 mps 754 mmHg 66%
    14:00 +3°C° 0.1 mm 6 mps 754 mmHg 71%
    15:00 +3°C° 0 mm 5 mps 754 mmHg 72%
    16:00 +3°C° 0 mm 5 mps 754 mmHg 73%
    17:00 +3°C° 0 mm 5 mps 754 mmHg 75%
    18:00 +4°C° 0 mm 4 mps 754 mmHg 76%
    19:00 +3°C° 0 mm 4 mps 754 mmHg 77%
    20:00 +3°C° 0 mm 4 mps 754 mmHg 79%
    21:00 +3°C° 0 mm 3 mps 754 mmHg 80%
    22:00 +2°C° 0 mm 3 mps 754 mmHg 81%
    23:00 +3°C° 0 mm 2 mps 754 mmHg 83%

    Tomorrow, 22 March, Friday

    Time Temperature Precipitation Wind Pressure Humidity
    00:00 +3°C° 0 mm 2 mps 754 mmHg 84%
    01:00 +2°C° 0 mm 2 mps 754 mmHg 86%
    02:00 +2°C° 0 mm 2 mps 754 mmHg 88%
    03:00 +2°C° 0 mm 2 mps 754 mmHg 89%
    04:00 +1°C° 0 mm 2 mps 754 mmHg 90%
    05:00 +1°C° 0 mm 2 mps 753 mmHg 92%
    06:00 +1°C° 0.1 mm 3 mps 753 mmHg 90%
    07:00 +2°C° 0.1 mm 3 mps 753 mmHg 88%
    08:00 +2°C° 0.1 mm 3 mps 752 mmHg 86%
    09:00 +3°C° 0.4 mm 4 mps 752 mmHg 87%
    10:00 +2°C° 0.4 mm 5 mps 751 mmHg 87%
    11:00 +2°C° 0.4 mm 6 mps 750 mmHg 88%
    12:00 +3°C° 0.2 mm 6 mps 750 mmHg 89%
    13:00 +3°C° 0.2 mm 6 mps 749 mmHg 90%
    14:00 +4°C° 0.2 mm 6 mps 748 mmHg 91%
    15:00 +5°C° 0.3 mm 7 mps 748 mmHg 81%
    16:00 +5°C° 0.3 mm 8 mps 748 mmHg 72%
    17:00 +6°C° 0.3 mm 8 mps 748 mmHg 63%
    18:00 +4°C° 0 mm 8 mps 749 mmHg 63%
    19:00 +3°C° 0 mm 7 mps 749 mmHg 63%
    20:00 +1°C° 0 mm 6 mps 750 mmHg 63%
    21:00 0°C° 0 mm 5 mps 750 mmHg 64%
    22:00 0°C° 0 mm 5 mps 750 mmHg 66%
    23:00 -1°C° 0 mm 5 mps 750 mmHg 68%

    Day after tomorrow, 23 March, Saturday

    Time Temperature Precipitation Wind Pressure Humidity
    00:00 -1°C° 0 mm 5 mps 750 mmHg 68%
    01:00 -2°C° 0 mm 6 mps 750 mmHg 67%
    02:00 -2°C° 0 mm 6 mps 750 mmHg 67%
    03:00 -3°C° 0 mm 6 mps 750 mmHg 70%
    04:00 -3°C° 0 mm 6 mps 750 mmHg 73%
    05:00 -3°C° 0 mm 6 mps 750 mmHg 76%
    06:00 -3°C° 0 mm 7 mps 750 mmHg 73%
    07:00 -2°C° 0 mm 7 mps 750 mmHg 71%
    08:00 -2°C° 0 mm 8 mps 750 mmHg 68%
    09:00 -1°C° 0 mm 8 mps 750 mmHg 63%
    10:00 0°C° 0 mm 8 mps 751 mmHg 57%
    11:00 0°C° 0 mm 8 mps 751 mmHg 52%
    12:00 +1°C° 0 mm 8 mps 751 mmHg 54%
    13:00 +2°C° 0 mm 7 mps 751 mmHg 56%
    14:00 +2°C° 0 mm 7 mps 751 mmHg 58%
    15:00 +2°C° 0 mm 6 mps 752 mmHg 60%
    16:00 +2°C° 0 mm 6 mps 752 mmHg 62%
    17:00 +1°C° 0 mm 5 mps 752 mmHg 65%
    18:00 +1°C° 0 mm 4 mps 752 mmHg 68%
    19:00 +1°C° 0 mm 3 mps 753 mmHg 71%
    20:00 +2°C° 0 mm 2 mps 753 mmHg 74%
    21:00 +1°C° 0 mm 2 mps 753 mmHg 76%
    22:00 +1°C° 0 mm 2 mps 753 mmHg 78%
    23:00 +1°C° 0 mm 1 mps 753 mmHg 80%

    24 March, Sunday

    Time Temperature Precipitation Wind Pressure Humidity
    00:00 -1°C° 0 mm 2 mps 753 mmHg 80%
    01:00 -1°C° 0 mm 2 mps 752 mmHg 81%
    02:00 -1°C° 0 mm 2 mps 752 mmHg 81%
    03:00 +1°C° 0 mm 2 mps 752 mmHg 80%
    04:00 +1°C° 0 mm 2 mps 751 mmHg 79%
    05:00 0°C° 0 mm 3 mps 751 mmHg 77%
    06:00 +1°C° 0.1 mm 3 mps 751 mmHg 76%
    07:00 0°C° 0.1 mm 4 mps 750 mmHg 76%
    08:00 +1°C° 0.1 mm 4 mps 750 mmHg 75%
    09:00 +1°C° 0 mm 4 mps 750 mmHg 76%
    10:00 +3°C° 0 mm 4 mps 750 mmHg 78%
    11:00 +4°C° 0 mm 4 mps 749 mmHg 79%
    12:00 +3°C° 0 mm 5 mps 749 mmHg 78%
    13:00 +5°C° 0 mm 5 mps 749 mmHg 77%
    14:00 +6°C° 0 mm 5 mps 749 mmHg 76%
    15:00 +5°C° 0 mm 5 mps 749 mmHg 72%
    16:00 +5°C° 0 mm 4 mps 750 mmHg 67%
    17:00 +5°C° 0 mm 4 mps 750 mmHg 62%
    18:00 +4°C° 0 mm 3 mps 750 mmHg 65%
    19:00 +3°C° 0 mm 3 mps 751 mmHg 67%
    20:00 +1°C° 0 mm 3 mps 751 mmHg 69%
    21:00 +1°C° 0 mm 3 mps 751 mmHg 71%
    22:00 +1°C° 0 mm 3 mps 751 mmHg 73%
    23:00 0°C° 0 mm 3 mps 751 mmHg 74%

    25 March, Monday

    Time Temperature Precipitation Wind Pressure Humidity
    00:00 0°C° 0 mm 3 mps 751 mmHg 76%
    01:00 -1°C° 0 mm 3 mps 751 mmHg 77%
    02:00 -1°C° 0 mm 2 mps 751 mmHg 78%
    03:00 -1°C° 0 mm 2 mps 751 mmHg 78%
    04:00 -1°C° 0 mm 2 mps 751 mmHg 78%
    05:00 +1°C° 0 mm 1 mps 751 mmHg 78%
    06:00 +1°C° 0 mm 1 mps 751 mmHg 73%
    07:00 +2°C° 0 mm 1 mps 751 mmHg 67%
    08:00 +3°C° 0 mm 1 mps 751 mmHg 62%
    09:00 +4°C° 0 mm 1 mps 751 mmHg 56%
    10:00 +5°C° 0 mm 1 mps 751 mmHg 50%
    11:00 +5°C° 0 mm 2 mps 750 mmHg 44%
    12:00 +6°C° 0 mm 2 mps 750 mmHg 42%
    13:00 +5°C° 0 mm 3 mps 749 mmHg 40%
    14:00 +7°C° 0 mm 3 mps 748 mmHg 39%
    15:00 +7°C° 0 mm 3 mps 748 mmHg 43%
    16:00 +5°C° 0 mm 3 mps 747 mmHg 46%
    17:00 +5°C° 0 mm 4 mps 747 mmHg 50%
    18:00 +4°C° 0 mm 4 mps 746 mmHg 54%
    19:00 +4°C° 0 mm 4 mps 746 mmHg 58%
    20:00 +3°C° 0 mm 4 mps 745 mmHg 63%
    21:00 +3°C° 0.1 mm 4 mps 745 mmHg 64%
    22:00 +3°C° 0.1 mm 4 mps 744 mmHg 66%
    23:00 +1°C° 0.1 mm 4 mps 743 mmHg 68%

    26 March, Tuesday

    Time Temperature Precipitation Wind Pressure Humidity
    00:00 +1°C° 0.3 mm 5 mps 742 mmHg 75%
    01:00 +1°C° 0.3 mm 5 mps 741 mmHg 81%
    02:00 +1°C° 0.3 mm 6 mps 741 mmHg 87%
    03:00 +1°C° 0.1 mm 5 mps 740 mmHg 88%
    04:00 +1°C° 0.1 mm 5 mps 740 mmHg 89%
    05:00 +1°C° 0.1 mm 5 mps 739 mmHg 90%
    06:00 +1°C° 0 mm 5 mps 739 mmHg 86%
    07:00 +1°C° 0 mm 5 mps 739 mmHg 83%
    08:00 +2°C° 0 mm 5 mps 739 mmHg 79%
    09:00 +2°C° 0 mm 5 mps 740 mmHg 71%
    10:00 +3°C° 0 mm 6 mps 740 mmHg 62%
    11:00 +4°C° 0 mm 6 mps 740 mmHg 53%
    12:00 +4°C° 0.1 mm 6 mps 740 mmHg 51%
    13:00 +4°C° 0.1 mm 6 mps 740 mmHg 49%
    14:00 +4°C° 0.1 mm 6 mps 740 mmHg 47%
    15:00 +5°C° 0.1 mm 5 mps 740 mmHg 49%
    16:00 +3°C° 0.1 mm 5 mps 740 mmHg 51%
    17:00 +3°C° 0.1 mm 5 mps 741 mmHg 52%
    18:00 +3°C° 0.1 mm 4 mps 741 mmHg 57%
    19:00 +1°C° 0.1 mm 4 mps 741 mmHg 61%
    20:00 +1°C° 0.1 mm 4 mps 742 mmHg 65%
    21:00 +1°C° 0 mm 3 mps 742 mmHg 68%
    22:00 +1°C° 0 mm 3 mps 742 mmHg 70%
    23:00 0°C° 0 mm 3 mps 742 mmHg 73%
    Show more